Regional Weather Roundup
Issued by NWS Cleveland, OH

Home | Current Version | Previous Version | Graphics & Text | Print | Product List | Glossary On
Versions: 1 2 3 4 5 6 7 8 9 10 11 12 13 14 15 16 17 18 19 20 21 22 23 24 25 26 27 28 29 30 31 32 33 34 35 36 37 38 39 40 41 42 43 44 45 46 47 48 49 50
000
ASUS41 KCLE 192310
RWRCLE
OHIO REGIONAL WEATHER ROUNDUP
NATIONAL WEATHER SERVICE CLEVELAND, OH
700 PM EDT SUN OCT 19 2014

NOTE: "FAIR" INDICATES FEW OR NO CLOUDS BELOW 12,000 FEET WITH NO
SIGNIFICANT WEATHER AND/OR OBSTRUCTIONS TO VISIBILITY.

OHZ001>008-015>018-024>027-034-035-043-044-200000-
   NORTHWEST OHIO

CITY           SKY/WX    TMP DP  RH WIND       PRES   REMARKS
DEFIANCE       CLOUDY    50  36  58 SW3       30.07F
FINDLAY        MOCLDY    49  34  56 SW3       30.08F
TOLEDO EXPRESS CLOUDY    48  32  53 S3        30.07F
TOLEDO EXEC    CLOUDY    49  33  54 SW3       30.08F
LIMA           MOCLDY    49  35  58 W5        30.08F
$$

OHZ009>014-019>023-028>033-038-089-200000-
   NORTHEAST OHIO

CITY           SKY/WX    TMP DP  RH WIND       PRES   REMARKS
CLE-HOPKINS    MOCLDY    48  33  56 SW6       30.10F
CLE-LAKEFRONT  CLOUDY    48  34  58 SW8       30.08S
CUY CO. ARPT   CLOUDY    46  41  81 S5        30.09F
LORAIN-ELYRIA  MOCLDY    46  36  68 SW3       30.09F
ASHTABULA      MOCLDY    43  37  79 CALM      30.09S
AKRON-CANTON   MOCLDY    49  32  52 SW5       30.09S
WOOSTER        MOCLDY    49  33  54 SW5       30.09F
MANSFIELD      MOCLDY    46  33  60 SW6       30.08F
YOUNGSTOWN     MOCLDY    46  33  60 SW5       30.08F
$$

OHZ042-051>053-060>062-070>072-077>081-200000-
  SOUTHWEST OHIO

CITY           SKY/WX    TMP DP  RH WIND       PRES   REMARKS
CINC-COVINGTON PTCLDY    52  39  61 S3        30.11F
CINC-LUNKEN    PTCLDY    51  43  74 SE3       30.13S
HAMILTON       PTCLDY    51  40  65 S3        30.12F
DAYTON         MOCLDY    51  35  54 SW5       30.10F
WRIGHT-PAT AFB MOCLDY    49  37  61 S7        30.10F
DAYTON GENERAL PTCLDY    51  38  60 S5        30.10F
WILMINGTON     PTCLDY    50  36  58 SW5       30.11F HAZE
$$

OHZ036-037-039>041-045>050-054>059-063>069-073>076-082>088-200000-
  CENTRAL AND SOUTHEAST OHIO

CITY           SKY/WX    TMP DP  RH WIND       PRES   REMARKS
COLUMBUS       CLOUDY    52  33  48 S3        30.10F
OSU AIRPORT    MOCLDY    51  32  48 SW5       30.10F
BOLTON FIELD   CLEAR     50  36  57 S5        30.10F
RICKENBACK AFB MOCLDY    50  35  57 S6        30.10F
NEWARK         MOCLDY    49  36  61 S3        30.10F
MARION         MOCLDY    48  33  56 SW6       30.09F
LANCASTER      MOCLDY    50  35  56 CALM      30.12F
ZANESVILLE     MOCLDY    51  33  50 CALM      30.11F
NEW PHILLY     MOCLDY    50  34  54 S3        30.10F
$$



USA.gov is the U.S. government's official web portal to all federal, state and local government web resources and services.